Time,TemperatureF,DewpointF,PressureIn,WindDirection,WindDirectionDegrees,WindSpeedMPH,WindSpeedGustMPH,Humidity,HourlyPrecipIn,Conditions,Clouds,dailyrainin,SoftwareType,DateUTC
2013-03-05 00:00:00,33.6,22.4,30.00,NW,320,6.0,14.0,63,0.00,,CLR,0.00,VWS V14.00,2013-03-05 05:00:00,
2013-03-05 00:01:00,33.6,22.0,29.98,NNE,13,7.0,8.0,62,0.00,,BKN037,0.00,VWS V14.00,2013-03-05 05:01:00,
2013-03-05 00:02:00,33.6,22.0,29.98,NW,316,1.0,7.0,62,0.00,,BKN037,0.00,VWS V14.00,2013-03-05 05:02:00,
2013-03-05 00:07:00,33.7,22.1,29.98,NW,320,2.0,10.0,62,0.00,,BKN037,0.00,VWS V14.00,2013-03-05 05:07:00,
2013-03-05 00:12:00,33.7,22.1,29.98,NNW,340,2.0,14.0,62,0.00,,BKN037,0.00,VWS V14.00,2013-03-05 05:12:00,
2013-03-05 00:18:00,33.7,22.1,29.98,NW,314,5.0,14.0,62,0.00,,BKN037,0.00,VWS V14.00,2013-03-05 05:18:00,
2013-03-05 00:23:00,33.7,22.1,29.99,NNW,340,2.0,14.0,62,0.00,,BKN037,0.00,VWS V14.00,2013-03-05 05:23:00,
2013-03-05 00:28:00,33.7,22.1,29.99,NW,310,2.0,14.0,62,0.00,,BKN037,0.00,VWS V14.00,2013-03-05 05:28:00,
2013-03-05 00:30:00,33.4,22.2,30.00,NNW,331,2.0,12.0,63,0.00,,CLR,0.00,VWS V14.00,2013-03-05 05:30:00,
2013-03-05 00:33:00,33.7,22.1,29.99,NW,310,6.0,11.0,62,0.00,,BKN037,0.00,VWS V14.00,2013-03-05 05:33:00,
2013-03-05 00:38:00,33.7,22.1,29.99,North,351,5.0,11.0,62,0.00,,BKN037,0.00,VWS V14.00,2013-03-05 05:38:00,
2013-03-05 00:43:00,33.7,22.1,29.99,North,9,5.0,14.0,62,0.00,,BKN037,0.00,VWS V14.00,2013-03-05 05:43:00,
2013-03-05 00:48:00,33.7,22.1,29.99,NW,321,6.0,14.0,62,0.00,,BKN037,0.00,VWS V14.00,2013-03-05 05:48:00,
2013-03-05 00:53:00,33.6,22.4,29.99,NW,308,12.0,14.0,63,0.00,,BKN037,0.00,VWS V14.00,2013-03-05 05:53:00,
2013-03-05 00:58:00,33.6,22.4,29.99,NNW,333,7.0,14.0,63,0.00,,BKN037,0.00,VWS V14.00,2013-03-05 05:58:00,
2013-03-05 01:00:00,33.2,22.4,30.00,NW,316,1.0,13.0,64,0.00,,CLR,0.00,VWS V14.00,2013-03-05 06:00:00,
2013-03-05 01:03:00,33.6,22.4,29.99,NNE,13,4.0,11.0,63,0.00,,OVC035,0.00,VWS V14.00,2013-03-05 06:03:00,
2013-03-05 01:08:00,33.6,22.4,29.99,NE,51,5.0,12.0,63,0.00,,OVC035,0.00,VWS V14.00,2013-03-05 06:08:00,
2013-03-05 01:13:00,33.5,22.3,30.00,NNW,336,4.0,12.0,63,0.00,,OVC035,0.00,VWS V14.00,2013-03-05 06:13:00,
2013-03-05 01:18:00,33.5,22.3,30.00,NNE,22,0.0,12.0,63,0.00,,OVC035,0.00,VWS V14.00,2013-03-05 06:18:00,
2013-03-05 01:23:00,33.4,22.2,30.00,NW,316,0.0,12.0,63,0.00,,OVC035,0.00,VWS V14.00,2013-03-05 06:23:00,
2013-03-05 01:28:00,33.4,22.2,30.00,NNW,330,3.0,12.0,63,0.00,,OVC035,0.00,VWS V14.00,2013-03-05 06:28:00,
2013-03-05 01:30:00,32.4,22.0,29.99,NW,314,2.0,8.0,65,0.00,,CLR,0.00,VWS V14.00,2013-03-05 06:30:00,
2013-03-05 01:33:00,33.4,22.2,30.00,NW,308,6.0,7.0,63,0.00,,OVC035,0.00,VWS V14.00,2013-03-05 06:33:00,
2013-03-05 01:38:00,33.4,22.2,30.00,NW,307,1.0,13.0,63,0.00,,OVC035,0.00,VWS V14.00,2013-03-05 06:38:00,
2013-03-05 01:43:00,33.4,22.2,30.00,NNE,13,1.0,13.0,63,0.00,,OVC035,0.00,VWS V14.00,2013-03-05 06:43:00,
2013-03-05 01:48:00,33.3,22.1,30.00,NW,319,1.0,13.0,63,0.00,,OVC035,0.00,VWS V14.00,2013-03-05 06:48:00,
2013-03-05 01:53:00,33.2,22.4,29.99,NNW,332,3.0,13.0,64,0.00,,OVC035,0.00,VWS V14.00,2013-03-05 06:53:00,
2013-03-05 01:58:00,33.2,22.4,30.00,NW,309,4.0,13.0,64,0.00,,OVC035,0.00,VWS V14.00,2013-03-05 06:58:00,
2013-03-05 02:00:00,32.1,21.7,29.99,NNW,345,0.0,10.0,65,0.00,,CLR,0.00,VWS V14.00,2013-03-05 07:00:00,
2013-03-05 02:03:00,33.1,22.3,30.00,WNW,300,2.0,4.0,64,0.00,,OVC035,0.00,VWS V14.00,2013-03-05 07:03:00,
2013-03-05 02:09:00,33.1,21.9,29.99,WNW,300,1.0,4.0,63,0.00,,OVC035,0.00,VWS V14.00,2013-03-05 07:09:00,
2013-03-05 02:14:00,32.9,22.1,29.99,North,349,1.0,5.0,64,0.00,,OVC035,0.00,VWS V14.00,2013-03-05 07:14:00,
2013-03-05 02:19:00,32.7,21.9,29.99,NE,40,2.0,5.0,64,0.00,,OVC035,0.00,VWS V14.00,2013-03-05 07:19:00,
2013-03-05 02:24:00,32.5,22.1,29.99,NNE,13,4.0,6.0,65,0.00,,OVC035,0.00,VWS V14.00,2013-03-05 07:24:00,
2013-03-05 02:29:00,32.4,22.0,29.99,NNE,20,2.0,8.0,65,0.00,,OVC035,0.00,VWS V14.00,2013-03-05 07:29:00,
2013-03-05 02:30:00,31.5,21.8,29.99,NW,316,5.0,9.0,67,0.00,,CLR,0.00,VWS V14.00,2013-03-05 07:30:00,
2013-03-05 02:34:00,32.3,21.9,29.98,WNW,300,2.0,8.0,65,0.00,,OVC035,0.00,VWS V14.00,2013-03-05 07:34:00,
2013-03-05 02:39:00,32.2,21.8,29.98,NNE,27,0.0,8.0,65,0.00,,OVC035,0.00,VWS V14.00,2013-03-05 07:39:00,
2013-03-05 02:44:00,32.1,21.7,29.98,NW,319,4.0,8.0,65,0.00,,OVC035,0.00,VWS V14.00,2013-03-05 07:44:00,
2013-03-05 02:49:00,32.2,21.8,29.98,NW,309,2.0,8.0,65,0.00,,OVC035,0.00,VWS V14.00,2013-03-05 07:49:00,
2013-03-05 02:54:00,32.1,21.7,29.98,WNW,289,0.0,8.0,65,0.00,,OVC035,0.00,VWS V14.00,2013-03-05 07:54:00,
2013-03-05 02:59:00,32.1,21.7,29.99,NNW,346,2.0,10.0,65,0.00,,OVC035,0.00,VWS V14.00,2013-03-05 07:59:00,
2013-03-05 03:00:00,31.5,21.8,29.99,NW,321,6.0,13.0,67,0.00,,CLR,0.00,VWS V14.00,2013-03-05 08:00:00,
2013-03-05 03:04:00,32.0,21.9,29.99,NNE,23,4.0,8.0,66,0.00,,OVC035,0.00,VWS V14.00,2013-03-05 08:04:00,
2013-03-05 03:09:00,31.7,21.7,29.99,NNE,32,3.0,8.0,66,0.00,,OVC035,0.00,VWS V14.00,2013-03-05 08:09:00,
2013-03-05 03:14:00,31.7,21.7,29.99,NNW,329,3.0,8.0,66,0.00,,SCT031,0.00,VWS V14.00,2013-03-05 08:14:00,
2013-03-05 03:19:00,31.6,21.6,29.99,NNW,333,3.0,9.0,66,0.00,,SCT031,0.00,VWS V14.00,2013-03-05 08:19:00,
2013-03-05 03:24:00,31.6,21.9,29.99,NW,319,8.0,9.0,67,0.00,,SCT031,0.00,VWS V14.00,2013-03-05 08:24:00,
2013-03-05 03:29:00,31.5,21.8,29.99,North,349,6.0,9.0,67,0.00,,SCT031,0.00,VWS V14.00,2013-03-05 08:29:00,
2013-03-05 03:30:00,31.2,21.9,30.01,NW,321,0.0,11.0,68,0.00,,CLR,0.00,VWS V14.00,2013-03-05 08:30:00,
2013-03-05 03:34:00,31.4,21.7,29.99,NW,322,4.0,8.0,67,0.00,,SCT031,0.00,VWS V14.00,2013-03-05 08:34:00,
2013-03-05 03:39:00,31.4,21.7,29.99,NW,325,4.0,8.0,67,0.00,,SCT031,0.00,VWS V14.00,2013-03-05 08:39:00,
2013-03-05 03:45:00,31.5,21.8,29.99,NNW,342,4.0,12.0,67,0.00,,SCT031,0.00,VWS V14.00,2013-03-05 08:45:00,
2013-03-05 03:50:00,31.4,21.7,29.99,NNW,335,8.0,13.0,67,0.00,,SCT031,0.00,VWS V14.00,2013-03-05 08:50:00,
2013-03-05 03:55:00,31.5,21.8,29.99,NW,305,8.0,13.0,67,0.00,,SCT031,0.00,VWS V14.00,2013-03-05 08:55:00,
2013-03-05 04:00:00,31.5,21.8,29.99,NW,323,6.0,8.0,67,0.00,,SCT031,0.00,VWS V14.00,2013-03-05 09:00:00,
2013-03-05 04:05:00,31.5,21.8,30.00,WNW,303,1.0,10.0,67,0.00,,SCT031,0.00,VWS V14.00,2013-03-05 09:05:00,
2013-03-05 04:10:00,31.6,21.9,30.00,WNW,302,10.0,11.0,67,0.00,,SCT031,0.00,VWS V14.00,2013-03-05 09:10:00,
2013-03-05 04:15:00,31.6,21.9,30.00,NNW,331,2.0,11.0,67,0.00,,CLR,0.00,VWS V14.00,2013-03-05 09:15:00,
2013-03-05 04:20:00,31.4,21.7,30.00,NW,316,2.0,11.0,67,0.00,,CLR,0.00,VWS V14.00,2013-03-05 09:20:00,
2013-03-05 04:25:00,31.3,21.6,30.01,North,353,1.0,11.0,67,0.00,,CLR,0.00,VWS V14.00,2013-03-05 09:25:00,
2013-03-05 04:30:00,31.2,21.9,30.01,NW,321,2.0,3.0,68,0.00,,CLR,0.00,VWS V14.00,2013-03-05 09:30:00,
2013-03-05 04:35:00,31.1,21.8,30.01,NNW,335,3.0,6.0,68,0.00,,CLR,0.00,VWS V14.00,2013-03-05 09:35:00,
2013-03-05 04:40:00,31.2,21.9,30.01,NW,308,3.0,10.0,68,0.00,,CLR,0.00,VWS V14.00,2013-03-05 09:40:00,
2013-03-05 04:45:00,31.4,21.7,30.01,NW,325,4.0,11.0,67,0.00,,CLR,0.00,VWS V14.00,2013-03-05 09:45:00,
2013-03-05 04:50:00,31.4,21.7,30.01,NW,326,9.0,11.0,67,0.00,,CLR,0.00,VWS V14.00,2013-03-05 09:50:00,
2013-03-05 04:55:00,31.4,21.7,30.02,WNW,295,6.0,11.0,67,0.00,,CLR,0.00,VWS V14.00,2013-03-05 09:55:00,
2013-03-05 05:00:00,31.4,21.7,30.02,WNW,288,2.0,3.0,67,0.00,,BKN030,0.00,VWS V14.00,2013-03-05 10:00:00,
2013-03-05 05:05:00,31.3,21.6,30.02,WNW,288,0.0,11.0,67,0.00,,BKN030,0.00,VWS V14.00,2013-03-05 10:05:00,
2013-03-05 05:11:00,31.4,21.7,30.02,NNW,329,3.0,11.0,67,0.00,,BKN030,0.00,VWS V14.00,2013-03-05 10:11:00,
2013-03-05 05:16:00,31.4,21.7,30.03,WNW,289,4.0,11.0,67,0.00,,BKN030,0.00,VWS V14.00,2013-03-05 10:16:00,
2013-03-05 05:21:00,31.3,21.6,30.03,WNW,302,4.0,11.0,67,0.00,,BKN030,0.00,VWS V14.00,2013-03-05 10:21:00,
2013-03-05 05:26:00,31.3,21.6,30.03,NW,308,0.0,11.0,67,0.00,,BKN030,0.00,VWS V14.00,2013-03-05 10:26:00,
2013-03-05 05:30:00,30.4,21.8,30.04,NE,37,2.0,5.0,70,0.00,,CLR,0.00,VWS V14.00,2013-03-05 10:30:00,
2013-03-05 05:31:00,31.3,22.0,30.03,NW,307,0.0,7.0,68,0.00,,BKN030,0.00,VWS V14.00,2013-03-05 10:31:00,
2013-03-05 05:36:00,31.2,21.9,30.03,NW,307,1.0,7.0,68,0.00,,BKN030,0.00,VWS V14.00,2013-03-05 10:36:00,
2013-03-05 05:41:00,31.1,21.8,30.03,NW,320,0.0,7.0,68,0.00,,BKN030,0.00,VWS V14.00,2013-03-05 10:41:00,
2013-03-05 05:46:00,31.0,21.7,30.03,NW,309,0.0,7.0,68,0.00,,BKN030,0.00,VWS V14.00,2013-03-05 10:46:00,
2013-03-05 05:51:00,30.8,21.5,30.04,WNW,297,0.0,7.0,68,0.00,,BKN030,0.00,VWS V14.00,2013-03-05 10:51:00,
2013-03-05 05:56:00,30.7,21.8,30.04,WNW,300,1.0,7.0,69,0.00,,BKN030,0.00,VWS V14.00,2013-03-05 10:56:00,
2013-03-05 06:00:00,30.9,22.3,30.04,NW,319,2.0,7.0,70,0.00,,CLR,0.00,VWS V14.00,2013-03-05 11:00:00,
2013-03-05 06:01:00,30.6,21.6,30.04,WNW,300,1.0,1.0,69,0.00,,SCT030,0.00,VWS V14.00,2013-03-05 11:01:00,
2013-03-05 06:06:00,30.4,21.5,30.04,WNW,284,0.0,3.0,69,0.00,,SCT030,0.00,VWS V14.00,2013-03-05 11:06:00,
2013-03-05 06:11:00,30.3,21.7,30.04,NW,307,0.0,5.0,70,0.00,,SCT030,0.00,VWS V14.00,2013-03-05 11:11:00,
2013-03-05 06:16:00,30.3,21.7,30.04,WNW,297,2.0,5.0,70,0.00,,SCT030,0.00,VWS V14.00,2013-03-05 11:16:00,
2013-03-05 06:21:00,30.4,21.8,30.04,North,360,0.0,5.0,70,0.00,,SCT030,0.00,VWS V14.00,2013-03-05 11:21:00,
2013-03-05 06:27:00,30.4,21.8,30.04,NNW,328,0.0,5.0,70,0.00,,SCT030,0.00,VWS V14.00,2013-03-05 11:27:00,
2013-03-05 06:30:00,33.0,22.9,30.05,North,8,1.0,6.0,66,0.00,,CLR,0.00,VWS V14.00,2013-03-05 11:30:00,
2013-03-05 06:32:00,30.4,21.8,30.04,North,353,0.0,2.0,70,0.00,,SCT030,0.00,VWS V14.00,2013-03-05 11:32:00,
2013-03-05 06:37:00,30.1,21.5,30.04,NW,315,0.0,2.0,70,0.00,,SCT030,0.00,VWS V14.00,2013-03-05 11:37:00,
2013-03-05 06:42:00,30.3,21.7,30.04,NNW,328,1.0,4.0,70,0.00,,SCT030,0.00,VWS V14.00,2013-03-05 11:42:00,
2013-03-05 06:47:00,30.4,21.8,30.04,NW,316,7.0,7.0,70,0.00,,SCT030,0.00,VWS V14.00,2013-03-05 11:47:00,
2013-03-05 06:52:00,30.6,22.0,30.04,NNW,339,0.0,7.0,70,0.00,,SCT030,0.00,VWS V14.00,2013-03-05 11:52:00,
2013-03-05 06:57:00,30.9,22.3,30.04,NW,322,0.0,7.0,70,0.00,,SCT030,0.00,VWS V14.00,2013-03-05 11:57:00,
2013-03-05 07:00:00,34.3,23.0,30.06,NNE,18,3.0,9.0,63,0.00,,CLR,0.00,VWS V14.00,2013-03-05 12:00:00,
2013-03-05 07:02:00,31.0,22.0,30.04,NNW,335,0.0,3.0,69,0.00,,CLR,0.00,VWS V14.00,2013-03-05 12:02:00,
2013-03-05 07:07:00,31.4,22.4,30.05,NW,319,1.0,6.0,69,0.00,,CLR,0.00,VWS V14.00,2013-03-05 12:07:00,
2013-03-05 07:12:00,31.7,22.4,30.05,NW,319,4.0,6.0,68,0.00,,CLR,0.00,VWS V14.00,2013-03-05 12:12:00,
2013-03-05 07:17:00,32.1,22.8,30.05,NE,56,1.0,6.0,68,0.00,,CLR,0.00,VWS V14.00,2013-03-05 12:17:00,
2013-03-05 07:22:00,32.5,22.4,30.05,NNE,13,2.0,6.0,66,0.00,,CLR,0.00,VWS V14.00,2013-03-05 12:22:00,
2013-03-05 07:27:00,32.8,22.7,30.05,NNE,12,0.0,6.0,66,0.00,,CLR,0.00,VWS V14.00,2013-03-05 12:27:00,
2013-03-05 07:30:00,35.4,23.3,30.06,North,352,4.0,12.0,61,0.00,,CLR,0.00,VWS V14.00,2013-03-05 12:30:00,
2013-03-05 07:33:00,33.2,23.1,30.05,NW,325,1.0,3.0,66,0.00,,CLR,0.00,VWS V14.00,2013-03-05 12:33:00,
2013-03-05 07:38:00,33.5,23.0,30.05,NW,321,5.0,6.0,65,0.00,,CLR,0.00,VWS V14.00,2013-03-05 12:38:00,
2013-03-05 07:43:00,33.7,22.8,30.05,NNW,347,0.0,7.0,64,0.00,,CLR,0.00,VWS V14.00,2013-03-05 12:43:00,
2013-03-05 07:48:00,33.9,22.6,30.06,NNE,18,2.0,9.0,63,0.00,,CLR,0.00,VWS V14.00,2013-03-05 12:48:00,
2013-03-05 07:53:00,34.1,23.2,30.06,NNW,347,2.0,9.0,64,0.00,,CLR,0.00,VWS V14.00,2013-03-05 12:53:00,
2013-03-05 07:58:00,34.3,23.4,30.06,NW,321,3.0,9.0,64,0.00,,CLR,0.00,VWS V14.00,2013-03-05 12:58:00,
2013-03-05 08:00:00,37.4,24.0,30.06,NNE,20,9.0,12.0,58,0.00,,CLR,0.00,VWS V14.00,2013-03-05 13:00:00,
2013-03-05 08:03:00,34.7,23.4,30.06,NNW,328,1.0,4.0,63,0.00,,CLR,0.00,VWS V14.00,2013-03-05 13:03:00,
2013-03-05 08:08:00,35.2,23.9,30.06,NW,326,1.0,6.0,63,0.00,,CLR,0.00,VWS V14.00,2013-03-05 13:08:00,
2013-03-05 08:13:00,35.4,23.3,30.06,North,4,2.0,7.0,61,0.00,,CLR,0.00,VWS V14.00,2013-03-05 13:13:00,
2013-03-05 08:18:00,35.2,23.1,30.06,NNE,19,5.0,12.0,61,0.00,,CLR,0.00,VWS V14.00,2013-03-05 13:18:00,
2013-03-05 08:23:00,35.2,23.1,30.06,NNW,340,8.0,12.0,61,0.00,,CLR,0.00,VWS V14.00,2013-03-05 13:23:00,
2013-03-05 08:28:00,35.3,23.2,30.06,NW,319,7.0,12.0,61,0.00,,CLR,0.00,VWS V14.00,2013-03-05 13:28:00,
2013-03-05 08:30:00,37.7,23.4,30.07,NNW,340,10.0,12.0,56,0.00,,CLR,0.00,VWS V14.00,2013-03-05 13:30:00,
2013-03-05 08:33:00,35.7,23.6,30.06,NW,316,3.0,7.0,61,0.00,,CLR,0.00,VWS V14.00,2013-03-05 13:33:00,
2013-03-05 08:38:00,35.9,23.4,30.06,NW,326,4.0,11.0,60,0.00,,CLR,0.00,VWS V14.00,2013-03-05 13:38:00,
2013-03-05 08:43:00,36.0,23.5,30.06,NE,43,3.0,11.0,60,0.00,,CLR,0.00,VWS V14.00,2013-03-05 13:43:00,
2013-03-05 08:49:00,36.4,24.2,30.06,ENE,66,4.0,11.0,61,0.00,,CLR,0.00,VWS V14.00,2013-03-05 13:49:00,
2013-03-05 08:54:00,37.2,24.6,30.06,NNE,33,0.0,11.0,60,0.00,,CLR,0.00,VWS V14.00,2013-03-05 13:54:00,
2013-03-05 08:59:00,37.4,24.0,30.06,NNE,26,5.0,11.0,58,0.00,,CLR,0.00,VWS V14.00,2013-03-05 13:59:00,
2013-03-05 09:00:00,39.1,23.9,30.06,NNE,18,1.0,10.0,54,0.00,,CLR,0.00,VWS V14.00,2013-03-05 14:00:00,
2013-03-05 09:04:00,37.1,23.7,30.06,NW,321,11.0,11.0,58,0.00,,CLR,0.00,VWS V14.00,2013-03-05 14:04:00,
2013-03-05 09:09:00,37.5,24.1,30.06,NNE,24,3.0,12.0,58,0.00,,CLR,0.00,VWS V14.00,2013-03-05 14:09:00,
2013-03-05 09:14:00,37.8,24.0,30.06,NNE,18,3.0,12.0,57,0.00,,CLR,0.00,VWS V14.00,2013-03-05 14:14:00,
2013-03-05 09:19:00,37.9,24.0,30.06,NE,47,2.0,12.0,57,0.00,,CLR,0.00,VWS V14.00,2013-03-05 14:19:00,
2013-03-05 09:24:00,38.2,23.9,30.06,NW,304,7.0,12.0,56,0.00,,CLR,0.00,VWS V14.00,2013-03-05 14:24:00,
2013-03-05 09:29:00,37.7,23.4,30.07,NNW,335,10.0,12.0,56,0.00,,CLR,0.00,VWS V14.00,2013-03-05 14:29:00,
2013-03-05 09:30:00,40.3,24.1,30.06,NNE,12,4.0,12.0,52,0.00,,CLR,0.00,VWS V14.00,2013-03-05 14:30:00,
2013-03-05 09:34:00,37.9,24.0,30.06,NW,309,3.0,10.0,57,0.00,,CLR,0.00,VWS V14.00,2013-03-05 14:34:00,
2013-03-05 09:39:00,38.7,24.4,30.06,NW,326,2.0,10.0,56,0.00,,CLR,0.00,VWS V14.00,2013-03-05 14:39:00,
2013-03-05 09:44:00,38.7,23.9,30.07,North,5,2.0,10.0,55,0.00,,CLR,0.00,VWS V14.00,2013-03-05 14:44:00,
2013-03-05 09:49:00,39.1,24.3,30.07,NE,51,1.0,10.0,55,0.00,,CLR,0.00,VWS V14.00,2013-03-05 14:49:00,
2013-03-05 09:54:00,39.5,24.2,30.06,NW,313,1.0,10.0,54,0.00,,CLR,0.00,VWS V14.00,2013-03-05 14:54:00,
2013-03-05 09:59:00,39.1,23.9,30.06,NW,324,2.0,10.0,54,0.00,,CLR,0.00,VWS V14.00,2013-03-05 14:59:00,
2013-03-05 10:00:00,41.3,25.5,30.05,North,8,0.0,9.0,53,0.00,,CLR,0.00,VWS V14.00,2013-03-05 15:00:00,
2013-03-05 10:04:00,39.6,24.3,30.06,ENE,76,2.0,7.0,54,0.00,,CLR,0.00,VWS V14.00,2013-03-05 15:04:00,
2013-03-05 10:09:00,40.1,24.4,30.06,ENE,73,6.0,10.0,53,0.00,,CLR,0.00,VWS V14.00,2013-03-05 15:09:00,
2013-03-05 10:14:00,40.1,23.9,30.06,NNE,20,2.0,12.0,52,0.00,,CLR,0.00,VWS V14.00,2013-03-05 15:14:00,
2013-03-05 10:19:00,39.8,23.6,30.06,NW,304,2.0,12.0,52,0.00,,CLR,0.00,VWS V14.00,2013-03-05 15:19:00,
2013-03-05 10:24:00,40.1,24.4,30.06,WNW,300,2.0,12.0,53,0.00,,CLR,0.00,VWS V14.00,2013-03-05 15:24:00,
2013-03-05 10:30:00,40.3,24.1,30.06,NW,319,4.0,4.0,52,0.00,,CLR,0.00,VWS V14.00,2013-03-05 15:30:00,
2013-03-05 10:35:00,40.1,23.9,30.06,NW,316,7.0,9.0,52,0.00,,CLR,0.00,VWS V14.00,2013-03-05 15:35:00,
2013-03-05 10:40:00,40.1,24.4,30.06,NNW,333,8.0,9.0,53,0.00,,CLR,0.00,VWS V14.00,2013-03-05 15:40:00,
2013-03-05 10:45:00,40.4,24.2,30.06,NW,323,3.0,9.0,52,0.00,,CLR,0.00,VWS V14.00,2013-03-05 15:45:00,
2013-03-05 10:50:00,40.1,23.9,30.05,WNW,298,3.0,9.0,52,0.00,,CLR,0.00,VWS V14.00,2013-03-05 15:50:00,
2013-03-05 10:55:00,40.7,24.9,30.05,NNW,335,7.0,9.0,53,0.00,,CLR,0.00,VWS V14.00,2013-03-05 15:55:00,
2013-03-05 11:00:00,41.4,25.6,30.05,NNE,19,4.0,5.0,53,0.00,,CLR,0.00,VWS V14.00,2013-03-05 16:00:00,
2013-03-05 11:05:00,41.9,25.1,30.05,NNE,26,3.0,9.0,51,0.00,,CLR,0.00,VWS V14.00,2013-03-05 16:05:00,
2013-03-05 11:10:00,41.6,24.8,30.05,NNW,340,0.0,9.0,51,0.00,,CLR,0.00,VWS V14.00,2013-03-05 16:10:00,
2013-03-05 11:15:00,42.5,25.2,30.04,NW,313,0.0,9.0,50,0.00,,CLR,0.00,VWS V14.00,2013-03-05 16:15:00,
2013-03-05 11:20:00,43.1,25.3,30.04,NNE,23,2.0,9.0,49,0.00,,CLR,0.00,VWS V14.00,2013-03-05 16:20:00,
2013-03-05 11:25:00,43.6,25.7,30.04,NNE,27,2.0,9.0,49,0.00,,CLR,0.00,VWS V14.00,2013-03-05 16:25:00,
2013-03-05 11:30:00,43.8,25.4,30.04,NNE,19,4.0,6.0,48,0.00,,CLR,0.00,VWS V14.00,2013-03-05 16:30:00,
2013-03-05 11:35:00,43.7,26.8,30.04,West,276,0.0,6.0,51,0.00,,CLR,0.00,VWS V14.00,2013-03-05 16:35:00,
2013-03-05 11:40:00,44.2,25.8,30.04,ENE,77,2.0,7.0,48,0.00,,CLR,0.00,VWS V14.00,2013-03-05 16:40:00,
2013-03-05 11:45:00,44.1,25.2,30.04,WNW,300,1.0,7.0,47,0.00,,CLR,0.00,VWS V14.00,2013-03-05 16:45:00,
2013-03-05 11:50:00,44.2,26.3,30.04,NE,37,1.0,7.0,49,0.00,,CLR,0.00,VWS V14.00,2013-03-05 16:50:00,
2013-03-05 11:55:00,44.4,26.0,30.04,NNW,329,3.0,10.0,48,0.00,,CLR,0.00,VWS V14.00,2013-03-05 16:55:00,
2013-03-05 12:00:00,44.0,25.6,30.03,East,79,2.0,3.0,48,0.00,,CLR,0.00,VWS V14.00,2013-03-05 17:00:00,
2013-03-05 12:06:00,44.4,26.0,30.03,ESE,114,0.0,4.0,48,0.00,,CLR,0.00,VWS V14.00,2013-03-05 17:06:00,
2013-03-05 12:11:00,44.4,26.9,30.03,East,91,1.0,6.0,50,0.00,,CLR,0.00,VWS V14.00,2013-03-05 17:11:00,
2013-03-05 12:16:00,44.4,25.5,30.03,NW,316,2.0,6.0,47,0.00,,CLR,0.00,VWS V14.00,2013-03-05 17:16:00,
2013-03-05 12:21:00,44.5,26.0,30.03,North,3,7.0,7.0,48,0.00,,CLR,0.00,VWS V14.00,2013-03-05 17:21:00,
2013-03-05 12:26:00,45.0,25.5,30.03,NE,41,2.0,7.0,46,0.00,,CLR,0.00,VWS V14.00,2013-03-05 17:26:00,
2013-03-05 12:30:00,47.5,27.8,30.02,SSW,198,1.0,8.0,46,0.00,,CLR,0.00,VWS V14.00,2013-03-05 17:30:00,
2013-03-05 12:31:00,45.2,26.2,30.02,SSE,149,1.0,2.0,47,0.00,,CLR,0.00,VWS V14.00,2013-03-05 17:31:00,
2013-03-05 12:36:00,45.9,27.3,30.02,SSE,147,1.0,4.0,48,0.00,,CLR,0.00,VWS V14.00,2013-03-05 17:36:00,
2013-03-05 12:41:00,45.9,26.3,30.03,ENE,74,4.0,5.0,46,0.00,,CLR,0.00,VWS V14.00,2013-03-05 17:41:00,
2013-03-05 12:46:00,45.8,26.2,30.02,NNE,30,5.0,6.0,46,0.00,,CLR,0.00,VWS V14.00,2013-03-05 17:46:00,
2013-03-05 12:51:00,46.5,26.9,30.02,West,278,2.0,6.0,46,0.00,,CLR,0.00,VWS V14.00,2013-03-05 17:51:00,
2013-03-05 12:56:00,46.8,26.6,30.02,NNE,13,2.0,6.0,45,0.00,,CLR,0.00,VWS V14.00,2013-03-05 17:56:00,
2013-03-05 13:00:00,47.6,27.3,30.01,WSW,248,3.0,6.0,45,0.00,,CLR,0.00,VWS V14.00,2013-03-05 18:00:00,
2013-03-05 13:01:00,47.1,26.3,30.02,ESE,104,1.0,3.0,44,0.00,,CLR,0.00,VWS V14.00,2013-03-05 18:01:00,
2013-03-05 13:06:00,47.4,27.1,30.02,North,3,3.0,4.0,45,0.00,,CLR,0.00,VWS V14.00,2013-03-05 18:06:00,
2013-03-05 13:11:00,46.7,26.0,30.02,NW,309,6.0,6.0,44,0.00,,CLR,0.00,VWS V14.00,2013-03-05 18:11:00,
2013-03-05 13:16:00,46.9,28.2,30.02,SSW,194,1.0,8.0,48,0.00,,CLR,0.00,VWS V14.00,2013-03-05 18:16:00,
2013-03-05 13:21:00,47.0,27.8,30.02,SSE,166,4.0,8.0,47,0.00,,CLR,0.00,VWS V14.00,2013-03-05 18:21:00,
2013-03-05 13:26:00,47.3,27.6,30.02,SSW,198,2.0,8.0,46,0.00,,CLR,0.00,VWS V14.00,2013-03-05 18:26:00,
2013-03-05 13:30:00,48.0,27.1,30.00,NW,314,2.0,7.0,44,0.00,,CLR,0.00,VWS V14.00,2013-03-05 18:30:00,
2013-03-05 13:32:00,47.6,27.3,30.01,NW,314,3.0,4.0,45,0.00,,CLR,0.00,VWS V14.00,2013-03-05 18:32:00,
2013-03-05 13:37:00,48.2,27.9,30.01,NE,34,1.0,6.0,45,0.00,,CLR,0.00,VWS V14.00,2013-03-05 18:37:00,
2013-03-05 13:42:00,47.7,25.8,30.01,NW,315,1.0,6.0,42,0.00,,CLR,0.00,VWS V14.00,2013-03-05 18:42:00,
2013-03-05 13:47:00,47.5,27.2,30.01,SSW,201,3.0,6.0,45,0.00,,CLR,0.00,VWS V14.00,2013-03-05 18:47:00,
2013-03-05 13:52:00,47.5,27.8,30.01,NNW,333,2.0,6.0,46,0.00,,CLR,0.00,VWS V14.00,2013-03-05 18:52:00,
2013-03-05 13:57:00,47.8,27.0,30.01,WSW,243,2.0,6.0,44,0.00,,CLR,0.00,VWS V14.00,2013-03-05 18:57:00,
2013-03-05 14:00:00,49.7,28.7,30.00,SE,124,1.0,7.0,44,0.00,,CLR,0.00,VWS V14.00,2013-03-05 19:00:00,
2013-03-05 14:02:00,47.7,26.9,30.01,SSW,195,1.0,3.0,44,0.00,,CLR,0.00,VWS V14.00,2013-03-05 19:02:00,
2013-03-05 14:07:00,48.5,27.0,30.01,NNE,19,3.0,6.0,43,0.00,,CLR,0.00,VWS V14.00,2013-03-05 19:07:00,
2013-03-05 14:12:00,47.8,26.4,30.01,WNW,290,3.0,7.0,43,0.00,,CLR,0.00,VWS V14.00,2013-03-05 19:12:00,
2013-03-05 14:17:00,47.6,27.3,30.01,NNW,328,2.0,7.0,45,0.00,,CLR,0.00,VWS V14.00,2013-03-05 19:17:00,
2013-03-05 14:22:00,47.8,27.5,30.01,West,269,0.0,7.0,45,0.00,,CLR,0.00,VWS V14.00,2013-03-05 19:22:00,
2013-03-05 14:27:00,47.9,26.5,30.00,WSW,255,1.0,7.0,43,0.00,,CLR,0.00,VWS V14.00,2013-03-05 19:27:00,
2013-03-05 14:30:00,49.4,26.7,30.00,West,263,0.0,6.0,41,0.00,,CLR,0.00,VWS V14.00,2013-03-05 19:30:00,
2013-03-05 14:32:00,48.4,27.5,30.00,NNE,19,5.0,7.0,44,0.00,,CLR,0.00,VWS V14.00,2013-03-05 19:32:00,
2013-03-05 14:37:00,48.7,27.2,30.01,SW,228,4.0,7.0,43,0.00,,CLR,0.00,VWS V14.00,2013-03-05 19:37:00,
2013-03-05 14:42:00,48.6,27.1,30.01,ESE,110,1.0,7.0,43,0.00,,CLR,0.00,VWS V14.00,2013-03-05 19:42:00,
2013-03-05 14:48:00,48.8,26.7,30.00,SE,143,1.0,7.0,42,0.00,,CLR,0.00,VWS V14.00,2013-03-05 19:48:00,
2013-03-05 14:53:00,49.1,27.0,30.00,East,84,2.0,7.0,42,0.00,,CLR,0.00,VWS V14.00,2013-03-05 19:53:00,
2013-03-05 14:58:00,49.3,28.3,30.00,SW,225,0.0,7.0,44,0.00,,CLR,0.00,VWS V14.00,2013-03-05 19:58:00,
2013-03-05 15:00:00,49.4,26.7,29.99,NE,51,2.0,7.0,41,0.00,,CLR,0.00,VWS V14.00,2013-03-05 20:00:00,
2013-03-05 15:03:00,49.5,26.8,30.00,ESE,120,2.0,4.0,41,0.00,,CLR,0.00,VWS V14.00,2013-03-05 20:03:00,
2013-03-05 15:08:00,48.8,26.2,30.00,WNW,294,2.0,5.0,41,0.00,,CLR,0.00,VWS V14.00,2013-03-05 20:08:00,
2013-03-05 15:13:00,48.7,26.6,30.00,WNW,288,1.0,5.0,42,0.00,,CLR,0.00,VWS V14.00,2013-03-05 20:13:00,
2013-03-05 15:18:00,48.8,26.7,30.00,NNW,335,1.0,6.0,42,0.00,,CLR,0.00,VWS V14.00,2013-03-05 20:18:00,
2013-03-05 15:23:00,48.5,27.0,30.00,East,99,1.0,6.0,43,0.00,,CLR,0.00,VWS V14.00,2013-03-05 20:23:00,
2013-03-05 15:28:00,49.2,27.1,30.00,SSW,208,1.0,6.0,42,0.00,,CLR,0.00,VWS V14.00,2013-03-05 20:28:00,
2013-03-05 15:30:00,49.1,27.0,29.98,NE,44,2.0,5.0,42,0.00,,CLR,0.00,VWS V14.00,2013-03-05 20:30:00,
2013-03-05 15:33:00,49.6,26.9,30.00,South,177,0.0,3.0,41,0.00,,CLR,0.00,VWS V14.00,2013-03-05 20:33:00,
2013-03-05 15:38:00,49.7,27.0,29.99,SW,225,0.0,3.0,41,0.00,,CLR,0.00,VWS V14.00,2013-03-05 20:38:00,
2013-03-05 15:43:00,50.5,27.1,30.00,North,355,1.0,3.0,40,0.00,,CLR,0.00,VWS V14.00,2013-03-05 20:43:00,
2013-03-05 15:48:00,50.6,27.8,29.99,NNE,18,4.0,7.0,41,0.00,,CLR,0.00,VWS V14.00,2013-03-05 20:48:00,
2013-03-05 15:53:00,50.0,26.0,29.99,ENE,68,2.0,7.0,39,0.00,,CLR,0.00,VWS V14.00,2013-03-05 20:53:00,
2013-03-05 15:58:00,49.5,26.8,29.99,NE,54,3.0,7.0,41,0.00,,CLR,0.00,VWS V14.00,2013-03-05 20:58:00,
2013-03-05 16:00:00,47.6,26.8,29.98,ESE,110,1.0,7.0,44,0.00,,CLR,0.00,VWS V14.00,2013-03-05 21:00:00,
2013-03-05 16:03:00,49.0,25.8,29.99,ENE,58,0.0,5.0,40,0.00,,CLR,0.00,VWS V14.00,2013-03-05 21:03:00,
2013-03-05 16:08:00,48.7,26.1,29.99,NNE,22,0.0,5.0,41,0.00,,CLR,0.00,VWS V14.00,2013-03-05 21:08:00,
2013-03-05 16:13:00,49.2,27.1,29.98,NNW,332,2.0,5.0,42,0.00,,CLR,0.00,VWS V14.00,2013-03-05 21:13:00,
2013-03-05 16:19:00,49.1,25.8,29.98,NE,42,1.0,5.0,40,0.00,,CLR,0.00,VWS V14.00,2013-03-05 21:19:00,
2013-03-05 16:24:00,49.2,25.9,29.98,North,356,2.0,5.0,40,0.00,,CLR,0.00,VWS V14.00,2013-03-05 21:24:00,
2013-03-05 16:29:00,49.1,27.0,29.98,SE,129,0.0,5.0,42,0.00,,CLR,0.00,VWS V14.00,2013-03-05 21:29:00,
2013-03-05 16:30:00,46.6,26.4,29.99,SE,134,1.0,3.0,45,0.00,,CLR,0.00,VWS V14.00,2013-03-05 21:30:00,
2013-03-05 16:34:00,48.7,26.1,29.98,SE,125,1.0,3.0,41,0.00,,CLR,0.00,VWS V14.00,2013-03-05 21:34:00,
2013-03-05 16:39:00,48.2,26.8,29.98,ESE,122,0.0,6.0,43,0.00,,CLR,0.00,VWS V14.00,2013-03-05 21:39:00,
2013-03-05 16:44:00,47.9,26.5,29.97,NNE,22,2.0,7.0,43,0.00,,CLR,0.00,VWS V14.00,2013-03-05 21:44:00,
2013-03-05 16:49:00,47.6,26.2,29.97,East,101,2.0,7.0,43,0.00,,CLR,0.00,VWS V14.00,2013-03-05 21:49:00,
2013-03-05 16:54:00,47.7,26.9,29.98,WNW,301,1.0,7.0,44,0.00,,CLR,0.00,VWS V14.00,2013-03-05 21:54:00,
2013-03-05 16:59:00,47.6,26.8,29.98,SE,124,1.0,7.0,44,0.00,,CLR,0.00,VWS V14.00,2013-03-05 21:59:00,
2013-03-05 17:00:00,43.9,26.5,30.00,SE,144,0.0,2.0,50,0.00,,CLR,0.00,VWS V14.00,2013-03-05 22:00:00,
2013-03-05 17:04:00,47.5,27.2,29.98,SE,125,0.0,3.0,45,0.00,,CLR,0.00,VWS V14.00,2013-03-05 22:04:00,
2013-03-05 17:09:00,47.5,27.2,29.98,SE,129,0.0,3.0,45,0.00,,CLR,0.00,VWS V14.00,2013-03-05 22:09:00,
2013-03-05 17:14:00,47.2,26.4,29.99,ENE,76,2.0,3.0,44,0.00,,CLR,0.00,VWS V14.00,2013-03-05 22:14:00,
2013-03-05 17:19:00,46.9,26.7,29.99,East,90,1.0,3.0,45,0.00,,CLR,0.00,VWS V14.00,2013-03-05 22:19:00,
2013-03-05 17:24:00,46.9,26.7,29.99,SE,141,1.0,3.0,45,0.00,,CLR,0.00,VWS V14.00,2013-03-05 22:24:00,
2013-03-05 17:29:00,46.6,26.4,29.99,SE,134,1.0,1.0,45,0.00,,CLR,0.00,VWS V14.00,2013-03-05 22:29:00,
2013-03-05 17:30:00,40.1,26.1,30.01,SE,144,0.0,1.0,57,0.00,,CLR,0.00,VWS V14.00,2013-03-05 22:30:00,
2013-03-05 17:34:00,46.4,26.8,29.99,SE,140,1.0,1.0,46,0.00,,CLR,0.00,VWS V14.00,2013-03-05 22:34:00,
2013-03-05 17:40:00,46.1,27.0,29.99,SE,135,1.0,1.0,47,0.00,,CLR,0.00,VWS V14.00,2013-03-05 22:40:00,
2013-03-05 17:45:00,45.6,27.1,29.99,SE,142,1.0,2.0,48,0.00,,CLR,0.00,VWS V14.00,2013-03-05 22:45:00,
2013-03-05 17:50:00,45.2,26.7,29.99,SE,143,0.0,2.0,48,0.00,,CLR,0.00,VWS V14.00,2013-03-05 22:50:00,
2013-03-05 17:55:00,44.5,26.5,29.99,SE,144,0.0,2.0,49,0.00,,CLR,0.00,VWS V14.00,2013-03-05 22:55:00,
2013-03-05 18:00:00,43.8,26.4,30.00,SE,143,0.0,0.0,50,0.00,,CLR,0.00,VWS V14.00,2013-03-05 23:00:00,
2013-03-05 18:05:00,43.2,26.3,30.00,SE,143,0.0,1.0,51,0.00,,CLR,0.00,VWS V14.00,2013-03-05 23:05:00,
2013-03-05 18:10:00,42.8,26.4,30.00,SE,144,0.0,1.0,52,0.00,,CLR,0.00,VWS V14.00,2013-03-05 23:10:00,
2013-03-05 18:15:00,42.1,26.2,30.00,SE,144,0.0,1.0,53,0.00,,CLR,0.00,VWS V14.00,2013-03-05 23:15:00,
2013-03-05 18:20:00,41.5,26.1,30.00,SE,143,0.0,1.0,54,0.00,,CLR,0.00,VWS V14.00,2013-03-05 23:20:00,
2013-03-05 18:25:00,40.9,26.4,30.01,SE,144,0.0,1.0,56,0.00,,CLR,0.00,VWS V14.00,2013-03-05 23:25:00,
2013-03-05 18:30:00,40.1,26.5,30.01,SE,143,0.0,0.0,58,0.00,,CLR,0.00,VWS V14.00,2013-03-05 23:30:00,
2013-03-05 18:35:00,39.9,26.3,30.01,SE,143,0.0,1.0,58,0.00,,CLR,0.00,VWS V14.00,2013-03-05 23:35:00,
2013-03-05 18:40:00,39.6,26.1,30.00,SE,143,0.0,1.0,58,0.00,,CLR,0.00,VWS V14.00,2013-03-05 23:40:00,
2013-03-05 18:45:00,38.9,26.2,30.01,SE,143,0.0,1.0,60,0.00,,CLR,0.00,VWS V14.00,2013-03-05 23:45:00,
2013-03-05 18:50:00,38.3,26.4,30.01,SE,143,0.0,1.0,62,0.00,,CLR,0.00,VWS V14.00,2013-03-05 23:50:00,
2013-03-05 18:55:00,37.9,26.1,30.01,SE,143,0.0,1.0,62,0.00,,CLR,0.00,VWS V14.00,2013-03-05 23:55:00,
2013-03-05 19:00:00,37.6,26.2,30.02,SE,143,0.0,0.0,63,0.00,,CLR,0.00,VWS V14.00,2013-03-06 00:00:00,
2013-03-05 19:06:00,37.0,26.0,30.02,ENE,74,5.0,5.0,64,0.00,,CLR,0.00,VWS V14.00,2013-03-06 00:06:00,
2013-03-05 19:11:00,37.8,27.5,30.02,South,169,3.0,7.0,66,0.00,,CLR,0.00,VWS V14.00,2013-03-06 00:11:00,
2013-03-05 19:16:00,38.7,27.6,30.02,SE,124,1.0,7.0,64,0.00,,CLR,0.00,VWS V14.00,2013-03-06 00:16:00,
2013-03-05 19:21:00,39.0,27.9,30.02,South,179,0.0,7.0,64,0.00,,CLR,0.00,VWS V14.00,2013-03-06 00:21:00,
2013-03-05 19:26:00,38.7,28.0,30.02,SSW,195,3.0,7.0,65,0.00,,CLR,0.00,VWS V14.00,2013-03-06 00:26:00,
2013-03-05 19:30:00,36.3,27.1,30.01,SSE,165,0.0,1.0,69,0.00,,CLR,0.00,VWS V14.00,2013-03-06 00:30:00,
2013-03-05 19:31:00,38.8,28.1,30.02,SE,146,6.0,8.0,65,0.00,,CLR,0.00,VWS V14.00,2013-03-06 00:31:00,
2013-03-05 19:36:00,39.6,28.4,30.02,SSE,156,2.0,8.0,64,0.00,,CLR,0.00,VWS V14.00,2013-03-06 00:36:00,
2013-03-05 19:41:00,39.6,28.4,30.02,South,183,2.0,8.0,64,0.00,,CLR,0.00,VWS V14.00,2013-03-06 00:41:00,
2013-03-05 19:46:00,39.5,28.4,30.02,SE,142,2.0,8.0,64,0.00,,CLR,0.00,VWS V14.00,2013-03-06 00:46:00,
2013-03-05 19:51:00,39.3,28.2,30.02,South,172,1.0,8.0,64,0.00,,CLR,0.00,VWS V14.00,2013-03-06 00:51:00,
2013-03-05 19:56:00,39.1,28.0,30.02,SSE,165,0.0,8.0,64,0.00,,CLR,0.00,VWS V14.00,2013-03-06 00:56:00,
2013-03-05 20:00:00,34.7,26.6,30.02,SSE,165,0.0,0.0,72,0.00,,CLR,0.00,VWS V14.00,2013-03-06 01:00:00,
2013-03-05 20:01:00,38.6,27.9,30.02,SSE,165,0.0,0.0,65,0.00,,CLR,0.00,VWS V14.00,2013-03-06 01:01:00,
2013-03-05 20:06:00,38.0,27.3,30.02,SSE,165,0.0,0.0,65,0.00,,CLR,0.00,VWS V14.00,2013-03-06 01:06:00,
2013-03-05 20:11:00,37.5,27.2,30.02,SSE,165,0.0,0.0,66,0.00,,CLR,0.00,VWS V14.00,2013-03-06 01:11:00,
2013-03-05 20:16:00,37.1,27.2,30.02,SSE,165,1.0,1.0,67,0.00,,CLR,0.00,VWS V14.00,2013-03-06 01:16:00,
2013-03-05 20:21:00,36.5,27.0,30.01,SSE,165,0.0,1.0,68,0.00,,CLR,0.00,VWS V14.00,2013-03-06 01:21:00,
2013-03-05 20:27:00,36.1,26.9,30.01,SSE,165,1.0,1.0,69,0.00,,CLR,0.00,VWS V14.00,2013-03-06 01:27:00,
2013-03-05 20:30:00,35.3,27.9,30.02,SSW,197,1.0,4.0,74,0.00,,CLR,0.00,VWS V14.00,2013-03-06 01:30:00,
2013-03-05 20:32:00,36.4,27.2,30.01,SSE,165,0.0,0.0,69,0.00,,CLR,0.00,VWS V14.00,2013-03-06 01:32:00,
2013-03-05 20:37:00,36.1,26.9,30.01,SSE,165,0.0,0.0,69,0.00,,CLR,0.00,VWS V14.00,2013-03-06 01:37:00,
2013-03-05 20:42:00,35.9,27.1,30.01,SSE,165,0.0,0.0,70,0.00,,CLR,0.00,VWS V14.00,2013-03-06 01:42:00,
2013-03-05 20:47:00,35.8,27.0,30.02,SSE,165,0.0,0.0,70,0.00,,CLR,0.00,VWS V14.00,2013-03-06 01:47:00,
2013-03-05 20:52:00,35.5,27.0,30.02,SSE,165,0.0,0.0,71,0.00,,CLR,0.00,VWS V14.00,2013-03-06 01:52:00,
2013-03-05 20:57:00,35.0,26.6,30.02,SSE,165,0.0,0.0,71,0.00,,CLR,0.00,VWS V14.00,2013-03-06 01:57:00,
2013-03-05 21:00:00,33.9,26.5,30.02,SSW,197,0.0,1.0,74,0.00,,CLR,0.00,VWS V14.00,2013-03-06 02:00:00,
2013-03-05 21:02:00,34.5,26.8,30.02,SSE,165,0.0,0.0,73,0.00,,CLR,0.00,VWS V14.00,2013-03-06 02:02:00,
2013-03-05 21:07:00,34.0,26.3,30.02,SSE,165,0.0,0.0,73,0.00,,CLR,0.00,VWS V14.00,2013-03-06 02:07:00,
2013-03-05 21:12:00,33.6,26.5,30.02,SSE,165,0.0,0.0,75,0.00,,CLR,0.00,VWS V14.00,2013-03-06 02:12:00,
2013-03-05 21:17:00,33.7,26.6,30.03,SSE,155,0.0,2.0,75,0.00,,CLR,0.00,VWS V14.00,2013-03-06 02:17:00,
2013-03-05 21:22:00,34.1,27.3,30.02,South,179,3.0,3.0,76,0.00,,CLR,0.00,VWS V14.00,2013-03-06 02:22:00,
2013-03-05 21:28:00,35.1,28.0,30.02,South,181,2.0,4.0,75,0.00,,CLR,0.00,VWS V14.00,2013-03-06 02:28:00,
2013-03-05 21:30:00,31.9,25.8,30.01,SSW,197,0.0,1.0,78,0.00,,CLR,0.00,VWS V14.00,2013-03-06 02:30:00,
2013-03-05 21:33:00,35.5,28.4,30.02,SSW,197,0.0,1.0,75,0.00,,CLR,0.00,VWS V14.00,2013-03-06 02:33:00,
2013-03-05 21:38:00,35.2,27.8,30.02,SSW,197,0.0,1.0,74,0.00,,CLR,0.00,VWS V14.00,2013-03-06 02:38:00,
2013-03-05 21:43:00,35.0,27.6,30.02,SSW,197,0.0,1.0,74,0.00,,CLR,0.00,VWS V14.00,2013-03-06 02:43:00,
2013-03-05 21:48:00,34.7,27.3,30.02,SSW,197,0.0,1.0,74,0.00,,CLR,0.00,VWS V14.00,2013-03-06 02:48:00,
2013-03-05 21:53:00,34.4,27.0,30.02,SSW,197,0.0,1.0,74,0.00,,CLR,0.00,VWS V14.00,2013-03-06 02:53:00,
2013-03-05 21:58:00,34.1,26.4,30.02,SSW,197,0.0,1.0,73,0.00,,CLR,0.00,VWS V14.00,2013-03-06 02:58:00,
2013-03-05 22:00:00,30.4,25.3,30.00,SSW,196,0.0,1.0,81,0.00,,CLR,0.00,VWS V14.00,2013-03-06 03:00:00,
2013-03-05 22:03:00,33.5,26.1,30.02,SSW,197,0.0,0.0,74,0.00,,CLR,0.00,VWS V14.00,2013-03-06 03:03:00,
2013-03-05 22:08:00,33.4,26.3,30.02,SSW,198,0.0,0.0,75,0.00,,CLR,0.00,VWS V14.00,2013-03-06 03:08:00,
2013-03-05 22:13:00,33.3,26.2,30.02,SSW,196,1.0,1.0,75,0.00,,CLR,0.00,VWS V14.00,2013-03-06 03:13:00,
2013-03-05 22:18:00,33.2,26.5,30.01,SSW,196,1.0,1.0,76,0.00,,CLR,0.00,VWS V14.00,2013-03-06 03:18:00,
2013-03-05 22:23:00,32.5,26.1,30.01,SSW,196,0.0,1.0,77,0.00,,CLR,0.00,VWS V14.00,2013-03-06 03:23:00,
2013-03-05 22:28:00,32.0,25.9,30.01,SSW,197,0.0,1.0,78,0.00,,CLR,0.00,VWS V14.00,2013-03-06 03:28:00,
2013-03-05 22:30:00,29.0,24.8,30.00,SSW,197,0.0,1.0,84,0.00,,CLR,0.00,VWS V14.00,2013-03-06 03:30:00,
2013-03-05 22:33:00,31.7,25.9,30.01,SSW,197,1.0,1.0,79,0.00,,CLR,0.00,VWS V14.00,2013-03-06 03:33:00,
2013-03-05 22:38:00,31.4,26.0,30.01,SSW,197,0.0,1.0,80,0.00,,CLR,0.00,VWS V14.00,2013-03-06 03:38:00,
2013-03-05 22:44:00,31.0,25.6,30.00,SSW,197,0.0,1.0,80,0.00,,CLR,0.00,VWS V14.00,2013-03-06 03:44:00,
2013-03-05 22:49:00,30.8,25.7,30.00,SSW,196,0.0,1.0,81,0.00,,CLR,0.00,VWS V14.00,2013-03-06 03:49:00,
2013-03-05 22:54:00,30.7,25.9,30.00,SSW,197,0.0,1.0,82,0.00,,CLR,0.00,VWS V14.00,2013-03-06 03:54:00,
2013-03-05 22:59:00,30.5,25.4,30.00,SSW,196,0.0,1.0,81,0.00,,CLR,0.00,VWS V14.00,2013-03-06 03:59:00,
2013-03-05 23:00:00,30.0,25.5,29.99,SSW,197,0.0,2.0,83,0.00,,CLR,0.00,VWS V14.00,2013-03-06 04:00:00,
2013-03-05 23:04:00,30.1,25.3,30.00,SSW,197,1.0,1.0,82,0.00,,CLR,0.00,VWS V14.00,2013-03-06 04:04:00,
2013-03-05 23:09:00,29.6,24.8,30.00,SSW,197,0.0,1.0,82,0.00,,CLR,0.00,VWS V14.00,2013-03-06 04:09:00,
2013-03-05 23:14:00,29.3,25.1,30.00,SSW,197,0.0,1.0,84,0.00,,CLR,0.00,VWS V14.00,2013-03-06 04:14:00,
2013-03-05 23:19:00,29.2,25.3,30.00,SSW,197,0.0,1.0,85,0.00,,CLR,0.00,VWS V14.00,2013-03-06 04:19:00,
2013-03-05 23:24:00,29.2,25.3,30.00,SSW,197,0.0,1.0,85,0.00,,CLR,0.00,VWS V14.00,2013-03-06 04:24:00,
2013-03-05 23:29:00,29.0,24.8,30.00,SSW,197,0.0,1.0,84,0.00,,CLR,0.00,VWS V14.00,2013-03-06 04:29:00,
2013-03-05 23:30:00,30.1,25.9,29.98,SSW,197,0.0,1.0,84,0.00,,CLR,0.00,VWS V14.00,2013-03-06 04:30:00,
2013-03-05 23:34:00,29.2,25.3,29.99,SSW,196,0.0,1.0,85,0.00,,CLR,0.00,VWS V14.00,2013-03-06 04:34:00,
2013-03-05 23:39:00,29.4,25.5,29.99,SSW,197,0.0,1.0,85,0.00,,CLR,0.00,VWS V14.00,2013-03-06 04:39:00,
2013-03-05 23:44:00,29.7,25.5,29.99,SSW,196,0.0,1.0,84,0.00,,CLR,0.00,VWS V14.00,2013-03-06 04:44:00,
2013-03-05 23:49:00,29.8,25.6,29.99,SSW,197,1.0,1.0,84,0.00,,CLR,0.00,VWS V14.00,2013-03-06 04:49:00,
2013-03-05 23:54:00,30.1,25.9,29.99,SSW,197,0.0,2.0,84,0.00,,CLR,0.00,VWS V14.00,2013-03-06 04:54:00,